Regional Weather Roundup
Issued by NWS

Home | Current Version | Previous Version | Graphics & Text | Print | Product List | Glossary On
Versions: 1 2 3 4 5 6 7 8 9 10 11 12 13 14 15 16 17 18 19 20 21 22 23 24 25 26 27 28 29 30 31 32 33 34 35 36 37 38 39 40 41 42 43 44 45 46 47 48 49 50
000
ASUS43 KMKX 020200
RWRWI

WISCONSIN REGIONAL WEATHER ROUNDUP
NATIONAL WEATHER SERVICE MILWAUKEE/SULLIVAN WI
900 PM CDT MON SEP 01 2014

NOTE: "FAIR" INDICATES FEW OR NO CLOUDS BELOW 12,000 FEET WITH NO
SIGNIFICANT WEATHER AND/OR OBSTRUCTIONS TO VISIBILITY.

WIZ001-002-006>008-014>016-023>028-020300-
NORTHWEST WISCONSIN

CITY           SKY/WX    TMP DP  RH WIND       PRES   REMARKS
SUPERIOR ARPT  PTCLDY    58  54  88 W3        29.74R
ASHLAND        CLEAR     56  54  93 SW7       29.74R
HAYWARD        CLEAR     59  56  89 CALM      29.78R
SIREN          CLEAR     59  57  92 CALM      29.78R
RICE LAKE      CLEAR     62  56  80 S3        29.80R
LADYSMITH      CLEAR     60  56  87 CALM      29.79R
EAU CLAIRE     NOT AVBL
MENOMONIE      CLEAR     68  56  67 SW3       29.79R
NEW RICHMOND   CLEAR     63  58  83 SW5       29.80R
OSCEOLA        CLEAR     61  60  95 CALM      29.81R
$$

WIZ003>005-009-010-017-018-020300-
NORTH CENTRAL WISCONSIN

CITY           SKY/WX    TMP DP  RH WIND       PRES   REMARKS
WOODRUFF       PTCLDY    62  56  79 W6        29.77R
RHINELANDER    PTCLDY    58  55  90 W5        29.78R
EAGLE RIVER    PTCLDY    57  55  94 CALM      29.75R
LAND O LAKES   CLEAR     56  55  96 CALM      29.76R
PHILLIPS       CLEAR     61  56  82 CALM      29.77R
TOMAHAWK       CLEAR     61  55  82 CALM      29.78R
MEDFORD        CLEAR     60  56  84 CALM      29.80R
MERRILL        CLEAR     61  57  85 W5        29.78R
$$

WIZ029-030-035-036-043>047-020300-
CENTRAL WISCONSIN

CITY           SKY/WX    TMP DP  RH WIND       PRES   REMARKS
WAUSAU         PTCLDY    65  55  70 W6        29.77R
MOSINEE        NOT AVBL
MARSHFIELD     CLEAR     63  58  83 W7        29.80R
STEVENS POINT  CLEAR     65  57  76 W3        29.79R
WAUPACA        CLEAR     67  62  84 W3        29.78R
WAUTOMA        NOT AVBL
WISC RAPIDS    CLEAR     64  59  83 W6        29.80R
CAMP DOUGLAS   NOT AVBL
$$

WIZ011>013-019>022-031-037>040-048>050-020300-
NORTHEAST WISCONSIN

CITY           SKY/WX    TMP DP  RH WIND       PRES   REMARKS
ANTIGO         CLEAR     59  55  88 SW5       29.78R
STURGEON BAY   PTCLDY    66  61  82 W5        29.75R
GREEN BAY      CLEAR     66  62  87 W8        29.76R
MANITOWOC      NOT AVBL
APPLETON       CLEAR     64  64 100 W8        29.78R
CLINTONVILLE   CLEAR     66  57  72 W6        29.76R
OSHKOSH        CLEAR     67  64  90 SW5       29.77R
$$

WIZ032>034-041-042-053>061-020300-
SOUTHWEST WISCONSIN

CITY           SKY/WX    TMP DP  RH WIND       PRES   REMARKS
LA CROSSE      MOCLDY    71  59  65 W8        29.80R
SPARTA         PTCLDY    64  61  90 CALM      29.82R
VIROQUA        FAIR      65  59  80 W3        29.83R
BOSCOBEL       PTCLDY    67  63  87 CALM      29.81R
PRAIRIE DU CHI PTCLDY    66  61  84 CALM      29.81R
PLATTEVILLE    FAIR      67  63  89 CALM      29.83S
$$

WIZ056-057-062-063-064-067-068-020300-
SOUTH CENTRAL WISCONSIN

CITY           SKY/WX    TMP DP  RH WIND       PRES   REMARKS
BARABOO/DELLS  CLEAR     66  60  81 CALM      29.80R
LONE ROCK      NOT AVBL
WATERTOWN      CLEAR     66  65  94 CALM      29.80R
MADISON        PTCLDY    68  62  81 CALM      29.81R
MIDDLETON      FAIR      65  58  78 W6        29.81R
MONROE         CLEAR     70  63  78 W8        29.82R
JANESVILLE     CLEAR     70  66  88 CALM      29.81
$$

WIZ051-052-058>065-066-070>072-020300-
SOUTHEAST WISCONSIN

CITY           SKY/WX    TMP DP  RH WIND       PRES   REMARKS
MILWAUKEE      PTCLDY    71  65  81 W7        29.80R
WAUKESHA       CLEAR     68  63  83 W5        29.82R
MILWAUKEE/TIMM CLEAR     70  63  78 W7        29.80R
RACINE         MOCLDY    70  67  90 W3        29.82R
BURLINGTON     MOCLDY    66  64  92 SW3       29.81R
KENOSHA        PTCLDY    70  66  87 W9        29.81R
FOND DU LAC    CLEAR     65  61  87 SW5       29.79R
SHEBOYGAN      CLEAR     65  61  87 W7        29.78R
WEST BEND      CLEAR     64  61  88 W5        29.79R
JUNEAU         CLEAR     64  62  90 SW3       29.81R
$$

LSZ147-162-020300-
LAKE SUPERIOR

STATION/POSITION TIME  TEMP    WIND        PRES    WAVE
                       AIR SEA DIR/SP/G            HT/PER
                 (UTC) (F)     (DEG/KT/KT) (MB)    (FT/S)
W MID LAKE BUOY  0050   61 57  250/ 12/ 14 1004.0R   2/ 5
DEVILS ISLAND    0100   65     260/ 15/ 17 1005.0R
PORT WING        0100   66     250/  7/ 11 1006.4R
SAXON HARBOR     0100   63     200/  2/  5 1006.1R
$$

LMZ867-665-643>646-020300-
LAKE MICHIGAN

STATION/POSITION TIME  TEMP    WIND        PRES    WAVE
                       AIR SEA DIR/SP/G            HT/PER
                 (UTC) (F)     (DEG/KT/KT) (MB)    (FT/S)
N MID LAKE BUOY  0050   66 65  230/ 10/ 10 1005.1R   2/ 5
NORTHPORT PIER   0100   68      CALM  /  2 1005.8R
KEWAUNEE LAKESHO 0100   71     230/  4/  5 1006.0R
SHEBOYGAN LAKESH 0100   71 56  260/  9/ 10 1007.8R
ATWATER BUOY     0100   68     250/  6/  8 1009.4R
MILWAUKEE LAKESH 0100   75     250/  8/ 10   N/A
S MID LAKE BUOY  0050   72 70  210/  8/ 10 1007.6R   1/ 4
KENOSHA   LAKESH 0100   73     310/  7/ 17 1008.5R
$$

TC  - TEMPERATURE IN CELSIUS
VSB - VISIBILITY IN STATUTE MILES
WCI - WIND CHILL INDEX
HX  - HEAT INDEX




USA.gov is the U.S. government's official web portal to all federal, state and local government web resources and services.